Weather History for KBCK - May, 2013

Change the Weather History Date:

Monday, May 27, 2013

  Actual Average (KLSE) Record (KLSE)
Temperature  
Mean Temperature 54 °F 63 °F  
Max Temperature 57 °F 74 °F 96 °F (1874)
Min Temperature 51 °F 52 °F 30 °F (1971)
Degree Days  
Heating Degree Days 11 4  
Month to date heating degree days 189  
Since 1 July heating degree days 7141  
Cooling Degree Days 0 2  
Month to date cooling degree days 32  
Year to date cooling degree days 39  
Growing Degree Days 4 (Base 50)    
Moisture  
Dew Point 48 °F    
Average Humidity 79    
Maximum Humidity 100    
Minimum Humidity 52    
Precipitation  
Precipitation 0.73 in 0.12 in 2.36 in (1956)
Month to date precipitation 3.04  
Year to date precipitation 10.59  
Snow  
Snow 0.00 in 0.00 in 0.00 in (2002)
Month to date snowfall 0.1  
Since 1 July snowfall 43.4  
Snow Depth -    
Sea Level Pressure  
Sea Level Pressure 29.98 in    
Wind  
Wind Speed 7 mph (East)    
Max Wind Speed 14 mph    
Max Gust Speed 22 mph    
Visibility 9 miles    
Events Rain    
T = Trace of Precipitation, MM = Missing Value Source: NWS Daily Summary

Daily Weather History Graph

Daily Weather History Graph

Search for Another Location

Airport or City:

Trip Planner

Search our weather history database for the weather conditions in past years. The results will help you decide how hot, cold, wet, or windy it might be!

Date:

Astronomy

May. 27, 2013 Rise Set
Actual Time 5:25 AM CDT 8:36 PM CDT
Civil Twilight 4:50 AM CDT 9:11 PM CDT
Nautical Twilight 4:05 AM CDT 9:56 PM CDT
Astronomical Twilight 3:10 AM CDT 10:52 PM CDT
Moon 11:12 PM CDT (5/27) 8:04 AM CDT (5/27)
Length of Visible Light 16h 20m
Length of Day
15h 10m
Waning Gibbous, 91% of the Moon is Illuminated
May 27
Waning Gibbous
May 31
Last Quarter
Jun 8
New
Jun 16
First Quarter
Jun 23
Full

Hourly Weather History & Observations

Time (CDT) Temp. Dew Point Humidity Pressure Visibility Wind Dir Wind Speed Gust Speed Precip Events Conditions
12:15 AM 56.8 °F 44.6 °F 64% 30.12 in 10.0 mi ESE 4.6 mph - N/A   Overcast
12:35 AM 57.2 °F 44.1 °F 62% 30.11 in 10.0 mi East 6.9 mph - N/A   Overcast
12:55 AM 57.0 °F 43.7 °F 61% 30.09 in 10.0 mi ESE 8.1 mph - N/A   Overcast
1:15 AM 56.7 °F 43.9 °F 62% 30.09 in 10.0 mi ESE 6.9 mph - N/A   Overcast
1:35 AM 57.0 °F 43.7 °F 61% 30.09 in 10.0 mi ESE 5.8 mph - N/A   Overcast
1:55 AM 57.0 °F 43.7 °F 61% 30.09 in 10.0 mi ESE 6.9 mph - N/A   Overcast
2:15 AM 57.2 °F 43.3 °F 60% 30.09 in 10.0 mi ESE 6.9 mph - N/A   Overcast
2:35 AM 57.2 °F 43.0 °F 59% 30.08 in 10.0 mi East 5.8 mph - N/A   Overcast
2:55 AM 56.8 °F 43.0 °F 60% 30.07 in 10.0 mi East 3.5 mph - N/A   Overcast
3:15 AM 56.5 °F 43.2 °F 61% 30.06 in 10.0 mi ESE 6.9 mph - N/A   Overcast
3:35 AM 56.8 °F 42.8 °F 59% 30.05 in 10.0 mi East 9.2 mph - N/A   Overcast
3:55 AM 56.7 °F 42.3 °F 59% 30.06 in 10.0 mi East 6.9 mph - N/A   Overcast
4:15 AM 56.5 °F 41.9 °F 58% 30.05 in 10.0 mi ESE 6.9 mph - N/A   Overcast
4:35 AM 56.3 °F 41.0 °F 57% 30.04 in 10.0 mi East 6.9 mph - N/A   Overcast
4:55 AM 56.3 °F 39.7 °F 54% 30.03 in 10.0 mi East 6.9 mph - N/A   Overcast
5:15 AM 56.1 °F 39.2 °F 53% 30.04 in 10.0 mi ESE 5.8 mph - N/A   Overcast
5:35 AM 55.9 °F 38.7 °F 52% 30.04 in 10.0 mi East 6.9 mph - N/A   Overcast
5:55 AM 55.8 °F 38.8 °F 53% 30.04 in 10.0 mi East 6.9 mph - N/A   Overcast
6:15 AM 55.8 °F 39.2 °F 54% 30.04 in 10.0 mi ESE 4.6 mph - N/A   Overcast
6:35 AM 55.8 °F 39.2 °F 54% 30.05 in 10.0 mi East 4.6 mph - N/A   Overcast
6:55 AM 55.6 °F 39.4 °F 55% 30.05 in 10.0 mi East 5.8 mph - N/A   Overcast
7:15 AM 55.6 °F 39.6 °F 55% 30.04 in 10.0 mi East 5.8 mph - N/A   Overcast
7:35 AM 55.8 °F 39.9 °F 55% 30.03 in 10.0 mi ESE 6.9 mph - N/A   Overcast
7:55 AM 55.9 °F 40.1 °F 55% 30.02 in 10.0 mi East 8.1 mph - N/A   Overcast
8:15 AM 56.3 °F 41.0 °F 57% 30.01 in 10.0 mi East 9.2 mph - N/A   Overcast
8:35 AM 56.7 °F 42.8 °F 60% 30.01 in 10.0 mi ESE 8.1 mph - N/A   Overcast
8:55 AM 56.8 °F 44.6 °F 64% 30.01 in 10.0 mi ESE 10.4 mph 16.1 mph N/A   Overcast
9:15 AM 56.8 °F 45.7 °F 66% 30.00 in 10.0 mi ESE 8.1 mph - N/A   Overcast
9:35 AM 57.2 °F 47.3 °F 69% 29.98 in 10.0 mi ESE 10.4 mph 21.9 mph N/A   Overcast
9:55 AM 56.8 °F 48.4 °F 73% 29.98 in 10.0 mi ESE 11.5 mph 16.1 mph N/A   Overcast
10:15 AM 57.2 °F 49.1 °F 74% 29.99 in 10.0 mi ESE 11.5 mph 17.3 mph N/A   Overcast
10:35 AM 56.8 °F 50.0 °F 78% 30.01 in 10.0 mi ESE 6.9 mph 17.3 mph N/A   Overcast
10:55 AM 56.8 °F 50.5 °F 79% 30.01 in 10.0 mi ESE 6.9 mph - N/A   Overcast
11:15 AM 57.2 °F 50.9 °F 79% 30.00 in 10.0 mi ESE 8.1 mph 16.1 mph N/A   Overcast
11:35 AM 57.4 °F 51.3 °F 80% 30.00 in 10.0 mi East 12.7 mph 16.1 mph N/A   Overcast
11:55 AM 57.4 °F 51.3 °F 80% 29.98 in 10.0 mi East 12.7 mph 19.6 mph N/A   Overcast
12:15 PM 57.4 °F 51.4 °F 81% 29.98 in 10.0 mi East 9.2 mph 17.3 mph N/A   Overcast
12:35 PM 57.2 °F 51.1 °F 80% 29.97 in 10.0 mi East 11.5 mph 20.7 mph N/A   Overcast
12:55 PM 57.2 °F 51.1 °F 80% 29.97 in 10.0 mi East 9.2 mph 17.3 mph N/A   Overcast
1:15 PM 57.2 °F 50.9 °F 79% 29.96 in 10.0 mi ESE 13.8 mph 17.3 mph N/A   Overcast
1:35 PM 57.2 °F 50.9 °F 79% 29.96 in 10.0 mi ESE 12.7 mph 19.6 mph N/A   Overcast
1:55 PM 56.8 °F 51.1 °F 81% 29.96 in 10.0 mi East 11.5 mph 16.1 mph N/A   Overcast
2:15 PM 55.8 °F 53.1 °F 91% 29.96 in 4.0 mi SE 6.9 mph - 0.03 in Rain Rain
2:35 PM 55.4 °F 54.9 °F 98% 29.96 in 4.0 mi East 4.6 mph - 0.08 in Rain Heavy Rain
2:55 PM 55.4 °F 55.4 °F 100% 29.96 in 3.0 mi East 6.9 mph - 0.14 in Rain Heavy Rain
3:15 PM 55.8 °F 55.8 °F 100% 29.95 in 3.0 mi East 9.2 mph - 0.06 in Rain Rain
3:35 PM 56.3 °F 56.3 °F 100% 29.93 in 5.0 mi East 8.1 mph - 0.10 in Rain Rain
3:55 PM 56.3 °F 56.3 °F 100% 29.92 in 7.0 mi East 10.4 mph - 0.13 in Rain Rain
4:15 PM 56.3 °F 56.3 °F 100% 29.91 in 10.0 mi East 10.4 mph - 0.01 in Rain Rain
4:35 PM 55.9 °F 55.8 °F 99% 29.92 in 7.0 mi East 8.1 mph 16.1 mph 0.03 in Rain Light Rain
4:55 PM 55.9 °F 55.8 °F 99% 29.92 in 10.0 mi East 8.1 mph - 0.03 in   Drizzle
5:15 PM 55.6 °F 55.6 °F 100% 29.92 in 5.0 mi East 8.1 mph - 0.03 in Rain Heavy Rain
5:35 PM 55.4 °F 55.4 °F 100% 29.92 in 7.0 mi East 8.1 mph - 0.08 in Rain Light Rain
5:55 PM 55.4 °F 55.4 °F 100% 29.91 in 10.0 mi East 8.1 mph - 0.08 in   Drizzle
6:15 PM 55.4 °F 55.0 °F 99% 29.91 in 10.0 mi East 5.8 mph - N/A   Light Drizzle
6:35 PM 54.7 °F 54.0 °F 97% 29.91 in 10.0 mi East 11.5 mph - N/A Rain Light Rain
6:55 PM 54.1 °F 53.8 °F 99% 29.89 in 10.0 mi East 10.4 mph 16.1 mph N/A   Overcast
7:15 PM 54.0 °F 53.8 °F 99% 29.89 in 10.0 mi East 9.2 mph - N/A   Drizzle
7:35 PM 53.6 °F 53.2 °F 99% 29.89 in 10.0 mi East 8.1 mph - N/A Rain Light Rain
7:55 PM 53.2 °F 52.9 °F 99% 29.90 in 10.0 mi East 6.9 mph - N/A   Light Drizzle
8:15 PM 53.1 °F 52.9 °F 99% 29.91 in 10.0 mi East 5.8 mph - 0.01 in Rain Light Rain
8:35 PM 52.7 °F 52.7 °F 100% 29.90 in 10.0 mi Calm Calm - 0.02 in Rain Rain
8:55 PM 52.3 °F 52.3 °F 100% 29.89 in 5.0 mi East 9.2 mph - 0.05 in Rain Rain
9:15 PM 52.0 °F 52.0 °F 100% 29.90 in 7.0 mi East 3.5 mph - 0.03 in Rain Light Rain
9:35 PM 52.0 °F 52.0 °F 100% 29.90 in 10.0 mi ESE 6.9 mph - 0.03 in Rain Rain
9:55 PM 52.0 °F 52.0 °F 100% 29.91 in 10.0 mi East 4.6 mph - 0.03 in   Light Drizzle
10:15 PM 52.0 °F 52.0 °F 100% 29.91 in 10.0 mi East 5.8 mph - N/A Rain Light Rain
10:35 PM 52.0 °F 52.0 °F 100% 29.91 in 7.0 mi East 5.8 mph - 0.01 in   Drizzle
10:55 PM 51.8 °F 51.8 °F 100% 29.91 in 10.0 mi East 4.6 mph - 0.01 in Rain Rain
11:15 PM 51.8 °F 51.8 °F 100% 29.90 in 4.0 mi East 4.6 mph - 0.04 in Rain Heavy Rain
11:35 PM 51.4 °F 51.4 °F 100% 29.89 in 1.5 mi East 5.8 mph - 0.23 in Rain Rain
11:55 PM 51.4 °F 51.4 °F 100% 29.88 in 4.0 mi ENE 6.9 mph - 0.26 in Rain Rain